Flag for Germany Weather past 2 weeks in Maintal, Hesse, Germany

Now
54 °F

Low clouds.


Feels Like: 54 °F
Forecast: 48 / 60 °F
Wind: 2 mph from Southwest

Location: Frankfurt / M-Flughafen

Current Time: Oct 25, 2014 at 2:56:28 PM

Latest Report: Oct 25, 2014 at 2:00 PM


Visibility: 9 mi

Pressure: 30.15 "Hg

Humidity: 87%

Dew point: 50 °F

Location of MaintalLocation

Historic Weather in Maintal — Graph

°F

Maintal temperature yesterday

Maximum temperature yesterday: 55 °F (at 4:00 PM)
Minimum temperature yesterday: 38 °F (at 4:00 AM)
Average temperature yesterday: 46 °F

Past Weeks' High & Low Weather Summary

 TemperatureHumidityPressure
High71 °F (Oct 19, 4:00 PM)100% (Oct 11, 1:00 AM)30.28 "Hg (Oct 11, 1:00 AM)
Low38 °F (Oct 24, 4:00 AM)61% (Oct 20, 4:00 PM)29.58 "Hg (Oct 21, 6:00 PM)
Average56 °F89%29.98 "Hg
* Reported Oct 10 1:00 PM — Oct 25 1:00 PM, Maintal, Weather by CustomWeather, © 2014

Note: Actual official high and low records may vary slightly from our data, if they occured in-between our weather recording intervals... More about our weather records

Advertising

Maintal weather history for previous 24 hours

 ConditionsComfort  
Time TempWeatherWind HumidityBarometerVisibility
1:00 PM
Oct 25
53 °FLow clouds.2 mph86%30.15 "Hg7 mi
12:00 PM51 °FLow clouds.3 mph92%30.15 "Hg7 mi
11:00 AM49 °FLow clouds.2 mph95%30.15 "Hg7 mi
10:00 AM48 °FLow clouds.No wind95%30.14 "Hg8 mi
9:00 AM47 °FOvercast.2 mph99%30.13 "Hg9 mi
8:00 AM47 °FLight rain. Overcast.3 mph100%30.11 "Hg7 mi
7:00 AM48 °FLight rain. Overcast.1 mph98%30.10 "Hg10 mi
6:00 AM48 °FOvercast.1 mph97%30.11 "Hg11 mi
4:00 AM48 °FOvercast.No wind96%30.11 "Hg9 mi
3:00 AM48 °FOvercast.1 mph94%30.11 "Hg9 mi
2:00 AM47 °FOvercast.1 mph98%30.11 "Hg9 mi
1:00 AM47 °FOvercast.1 mph99%30.12 "Hg9 mi
12:00 AM49 °FOvercast.1 mph94%30.12 "Hg9 mi
11:00 PM
Oct 24
49 °FOvercast.2 mph90%30.13 "Hg9 mi
10:00 PM47 °FOvercast.2 mph98%30.13 "Hg12 mi
9:00 PM47 °FOvercast.1 mph98%30.13 "Hg12 mi
8:00 PM48 °FOvercast.1 mph95%30.14 "Hg12 mi
7:00 PM49 °FOvercast.1 mph94%30.13 "Hg12 mi
6:00 PM51 °FPartly sunny.1 mph88%30.14 "Hg12 mi
4:00 PM55 °FPartly sunny.2 mph69%30.16 "Hg12 mi
3:00 PM54 °FScattered clouds.2 mph72%30.18 "Hg11 mi
2:00 PM53 °FScattered clouds.1 mph76%30.20 "Hg9 mi
Weather by CustomWeather, © 2014

See weather overviewHow to use our weather pages